,

(GMT )
Prerov

Weather History for LKPO - February, 2013

Change the Weather History Date:

Wednesday, February 20, 2013

  Actual Average Record
Temperature  
Mean Temperature 27 °F -  
Max Temperature 33 °F - - ()
Min Temperature 19 °F - - ()
Degree Days  
Heating Degree Days 38    
Moisture  
Dew Point 23 °F    
Average Humidity 83    
Maximum Humidity 93    
Minimum Humidity 69    
Precipitation  
Precipitation 0.00 in - - ()
Sea Level Pressure  
Sea Level Pressure 29.96 in    
Wind  
Wind Speed 5 mph ()    
Max Wind Speed 13 mph    
Max Gust Speed -    
Visibility 4.4 miles    
Events Snow    
T = Trace of Precipitation, MM = Missing Value Source: Averaged Metar Reports

Daily Weather History Graph

Daily Weather History Graph

Search for Another Location

Airport or City:

Trip Planner

Search our weather history database for the weather conditions in past years. The results will help you decide how hot, cold, wet, or windy it might be!

Date:

Astronomy

Feb. 20, 2013 Rise Set
Actual Time 6:50 AM CET 5:18 PM CET
Civil Twilight 6:17 AM CET 5:51 PM CET
Nautical Twilight 5:40 AM CET 6:28 PM CET
Astronomical Twilight 5:04 AM CET 7:05 PM CET
Moon 12:07 PM CET (2/20) 3:14 AM CET (2/20)
Length of Visible Light 11h 33m
Length of Day
10h 27m
Waxing Gibbous, 74% of the Moon is Illuminated
Feb 20
Waxing Gibbous
Feb 25
Full
Mar 4
Last Quarter
Mar 11
New
Mar 19
First Quarter

Hourly Weather History & Observations

Time (CET) Temp. Windchill Dew Point Humidity Pressure Visibility Wind Dir Wind Speed Gust Speed Precip Events Conditions
12:00 AM 30.2 °F 24.3 °F 26.6 °F 86% 29.83 in 6.2 mi North 5.8 mph - N/A   Mostly Cloudy
3:00 AM 28.4 °F 21.2 °F 24.8 °F 86% 29.86 in - West 6.9 mph - N/A   Clear
4:00 AM 26.6 °F 19.1 °F 23.0 °F 86% 29.86 in - West 6.9 mph - N/A   Clear
5:00 AM 28.4 °F 21.2 °F 23.0 °F 80% 29.89 in 6.2 mi West 6.9 mph - N/A   Mostly Cloudy
6:00 AM 26.6 °F 22.6 °F 23.0 °F 86% 29.89 in 6.2 mi West 3.5 mph - N/A   Overcast
6:40 AM 26.6 °F - 23.0 °F 86% 29.89 in 2.2 mi SW 2.3 mph - N/A Snow Light Snow
6:55 AM 26.6 °F 22.6 °F 23.0 °F 86% 29.89 in 3.7 mi SW 3.5 mph - N/A Snow Light Snow
7:00 AM 26.6 °F 22.6 °F 23.0 °F 86% 29.89 in 3.7 mi SW 3.5 mph - N/A Snow Light Snow
8:00 AM 28.4 °F 23.3 °F 24.8 °F 86% 29.92 in 6.2 mi SW 4.6 mph - N/A   Mostly Cloudy
9:00 AM 26.6 °F - 21.2 °F 80% 29.92 in - West 2.3 mph - N/A   Clear
10:00 AM 32.0 °F - 24.8 °F 75% 29.95 in - Calm Calm - N/A   Clear
11:00 AM 32.0 °F - 24.8 °F 75% 29.95 in 6.2 mi Variable 2.3 mph - N/A   Mostly Cloudy
12:00 PM 32.0 °F 24.2 °F 23.0 °F 69% 29.98 in 6.2 mi NW 9.2 mph - N/A   Mostly Cloudy
1:00 PM 32.0 °F 22.5 °F 24.8 °F 75% 29.98 in 6.2 mi NW 12.7 mph - N/A   Mostly Cloudy
2:00 PM 33.8 °F 24.8 °F 24.8 °F 70% 29.98 in 6.2 mi NW 12.7 mph - N/A   Mostly Cloudy
2:42 PM 30.2 °F 20.2 °F 24.8 °F 80% 29.98 in 1.6 mi NNW 12.7 mph - N/A Snow Light Snow Showers
2:46 PM 30.2 °F 20.8 °F 26.6 °F 86% 29.98 in 1.2 mi NNW 11.5 mph - N/A Snow Snow Showers
3:00 PM 30.2 °F 25.4 °F 26.6 °F 86% 29.98 in 6.2 mi North 4.6 mph - N/A Snow Light Snow Showers
3:38 PM 30.2 °F 25.4 °F 26.6 °F 86% 29.98 in 2.5 mi North 4.6 mph - N/A Snow Light Snow Showers
3:58 PM 30.2 °F 22.6 °F 26.6 °F 86% 29.98 in 1.6 mi NNW 8.1 mph - N/A Snow Light Snow Showers
4:00 PM 30.2 °F 22.6 °F 26.6 °F 86% 29.98 in 2.2 mi NNW 8.1 mph - N/A Snow Light Snow Showers
4:15 PM 28.4 °F 21.2 °F 26.6 °F 93% 29.98 in 3.7 mi NW 6.9 mph - N/A   Scattered Clouds
5:00 PM 28.4 °F 21.2 °F 26.6 °F 93% 30.01 in - WNW 6.9 mph - N/A   Clear
6:00 PM 26.6 °F 18.2 °F 21.2 °F 80% 30.01 in - NW 8.1 mph - N/A   Clear
7:00 PM 24.8 °F - 19.4 °F 80% 30.04 in - North 2.3 mph - N/A   Clear
8:00 PM 24.8 °F 20.5 °F 17.6 °F 74% 30.04 in - North 3.5 mph - N/A   Clear
9:00 PM 24.8 °F - 19.4 °F 80% 30.06 in - Variable 2.3 mph - N/A   Clear
10:00 PM 21.2 °F - 17.6 °F 86% 30.06 in - East 2.3 mph - N/A   Clear
11:00 PM 19.4 °F - 17.6 °F 93% 30.06 in 6.2 mi Calm Calm - N/A   Partly Cloudy